Location: Waco, TX
(31.5480°N, 97.1670°W)
Time: 09:18:57
(UTC-05:00)

ISS - Pass Details

Date: 10 October 2019
Orbit: 411 x 421 km, 51.6° (Epoch: 18 October)

Event Time Altitude Azimuth Distance (km) Brightness Sun altitude
Rises 20:31:26 0° 305° (NW) 2,338 1.0 -19.7°
Reaches altitude 10° 20:33:39 10° 295° (WNW) 1,474 0.0 -20.2°
Maximum altitude 20:36:38 32° 230° (SW) 729 -2.2 -20.8°
Enters shadow 20:37:42 25° 193° (SSW) 857 -2.2 -21.0°
Drops below altitude 10° 20:39:37 10° 165° (SSE) 1,467 - -21.5°
Sets 20:41:49 0° 155° (SSE) 2,325 - -21.9°
